Orbital Elements at Epoch 2459200.5 (2020-Dec-17.0) TDB
Reference: JPL 26 (heliocentric ecliptic J2000)
Element | Value | Uncertainty (1-sigma) | Units |
e | .1174707459557197 | 4.808e-08 | |
a | 2.38083962097553 | 7.1361e-09 | au |
q | 2.101160614698601 | 1.1642e-07 | au |
i | 6.430192855465379 | 4.5527e-06 | deg |
node | 155.6705374294065 | 2.6766e-05 | deg |
peri | 215.8624021221022 | 2.9907e-05 | deg |
M | 7.276523867190391 | 1.2358e-05 | deg |
tp | 2459173.378413134964 (2020-Nov-19.87841314) | 4.6078e-05 | TDB |
period | 1341.818078194908 3.67 | 6.0327e-06 1.652e-08 | d yr |
n | .2682927036460062 | 1.2062e-09 | deg/d |
Q | 2.660518627252458 | 7.9743e-09 | au |
|
| | Orbit Determination Parameters
Additional Information
|